FW9423 Weather Reports


Display with metric or nautical units.
time (UTC)temp
F
wind
direction
speed
MPH
gust
MPH
rain 1hr
in
rain 24hr
in
rain mn
in
humidity
%
barometer
mb
20260906064601 73 360 2.0 6.0 0.00 0.00 0.00 46 1018.4
20260906064043 73 360 2.0 5.0 0.00 0.00 0.00 45 1018.4
20260906063548 74 360 2.0 6.0 0.00 0.00 0.00 42 1018.9
20260906063102 74 360 2.0 8.0 0.00 0.00 0.00 39 1019.1
20260906062543 74 41 4.0 9.0 0.00 0.00 0.00 37 1019.0
20260906062042 75 69 3.0 9.0 0.00 0.00 0.00 36 1018.8
20260906061600 75 73 5.0 9.0 0.00 0.00 0.00 35 1018.6
20260906061039 75 74 4.0 11.0 0.00 0.00 0.00 36 1018.4
20260906060539 75 61 5.0 12.0 0.00 0.00 0.00 35 1018.3
20260906060058 75 70 5.0 12.0 0.00 0.00 0.00 35 1018.3
20260906055543 75 72 5.0 10.0 0.00 0.00 0.00 35 1017.9
20260906055040 75 122 5.0 10.0 0.00 0.00 0.00 35 1017.8
20260906054605 75 135 5.0 9.0 0.00 0.00 0.00 35 1017.7
20260906054043 75 116 4.0 9.0 0.00 0.00 0.00 36 1017.7
20260906053542 75 117 4.0 10.0 0.00 0.00 0.00 36 1017.7
20260906053109 75 108 5.0 10.0 0.00 0.00 0.00 36 1017.9
20260906052548 75 97 6.0 12.0 0.00 0.00 0.00 35 1017.9
20260906052041 75 88 5.0 12.0 0.00 0.00 0.00 35 1017.8
20260906051602 75 98 6.0 11.0 0.00 0.00 0.00 35 1017.7
20260906051039 75 86 4.0 10.0 0.00 0.00 0.00 36 1017.7
20260906050544 75 70 4.0 10.0 0.00 0.00 0.00 36 1017.8
20260906050057 75 84 5.0 10.0 0.00 0.00 0.00 35 1017.9
20260906045543 75 67 5.0 10.0 0.00 0.00 0.00 36 1018.0
20260906045040 75 76 4.0 10.0 0.00 0.00 0.00 36 1018.1
20260906044552 75 61 4.0 10.0 0.00 0.00 0.00 36 1018.2
20260906044043 75 84 4.0 10.0 0.00 0.00 0.00 35 1018.2
20260906043542 75 72 4.0 8.0 0.00 0.00 0.00 35 1018.1
20260906043102 75 103 2.0 7.0 0.00 0.00 0.00 36 1018.3
20260906042543 74 56 3.0 8.0 0.00 0.00 0.00 36 1018.4
20260906042042 75 80 3.0 8.0 0.00 0.00 0.00 35 1018.6
20260906041601 75 73 3.0 8.0 0.00 0.00 0.00 35 1018.7
20260906041043 75 56 3.0 9.0 0.00 0.00 0.00 35 1018.8
20260906040545 75 40 4.0 9.0 0.00 0.00 0.00 35 1018.8
20260906040114 75 89 4.0 10.0 0.00 0.00 0.00 35 1018.9
20260906035543 76 88 4.0 10.0 0.00 0.00 0.00 34 1019.0
20260906035044 76 71 3.0 8.0 0.00 0.00 0.00 35 1019.0
20260906034607 76 86 4.0 9.0 0.00 0.00 0.00 34 1019.1
20260906034042 75 41 3.0 9.0 0.00 0.00 0.00 35 1019.2
20260906033545 75 109 5.0 9.0 0.00 0.00 0.00 34 1019.2
20260906033111 76 96 3.0 9.0 0.00 0.00 0.00 35 1019.3
20260906032542 75 82 3.0 8.0 0.00 0.00 0.00 35 1019.5
20260906032043 75 32 3.0 7.0 0.00 0.00 0.00 35 1019.7
20260906031607 75 51 2.0 8.0 0.00 0.00 0.00 35 1019.8
20260906031043 75 34 3.0 9.0 0.00 0.00 0.00 35 1019.7
20260906030539 74 69 4.0 11.0 0.00 0.00 0.00 36 1019.7
20260906025543 74 40 3.0 9.0 0.00 0.00 0.00 36 1019.5
20260906025045 74 64 4.0 9.0 0.00 0.00 0.00 36 1019.3
20260906024600 74 68 3.0 10.0 0.00 0.00 0.00 36 1019.3
20260906024042 73 71 4.0 10.0 0.00 0.00 0.00 36 1019.0
20260906023547 73 30 5.0 10.0 0.00 0.00 0.00 37 1018.5
20260906023104 73 80 5.0 12.0 0.00 0.00 0.00 36 1018.4
20260906022543 73 56 6.0 13.0 0.00 0.00 0.00 36 1018.5
20260906022045 74 82 5.0 14.0 0.00 0.00 0.00 37 1018.4
20260906021605 73 42 5.0 14.0 0.00 0.00 0.00 38 1018.4
20260906021042 73 360 7.0 13.0 0.00 0.00 0.00 36 1018.3
20260906020542 73 360 6.0 14.0 0.00 0.00 0.00 37 1018.4
20260906020128 74 360 5.0 15.0 0.00 0.00 0.00 36 1018.3
20260906015539 74 59 9.0 15.0 0.00 0.00 0.00 36 1018.3
20260906015043 73 37 7.0 15.0 0.00 0.00 0.00 37 1018.3
20260906014556 72 64 7.0 15.0 0.00 0.00 0.00 38 1018.3
20260906014041 72 57 9.0 15.0 0.00 0.00 0.00 37 1018.3
20260906013547 73 35 8.0 17.0 0.00 0.00 0.00 37 1018.1
20260906013103 72 66 9.0 17.0 0.00 0.00 0.00 38 1018.1
20260906012545 72 78 8.0 17.0 0.00 0.00 0.00 38 1018.0
20260906012040 71 71 10.0 17.0 0.00 0.00 0.00 39 1018.1
20260906011608 71 42 10.0 15.0 0.00 0.00 0.00 39 1018.1
20260906011042 70 59 8.0 17.0 0.00 0.00 0.00 40 1018.3
20260906010543 69 77 10.0 17.0 0.00 0.00 0.00 40 1018.3
20260906005542 68 92 9.0 16.0 0.00 0.00 0.00 42 1018.5
20260906005041 68 51 10.0 17.0 0.00 0.00 0.00 42 1018.5
20260906004612 68 38 9.0 17.0 0.00 0.00 0.00 43 1018.3
20260906004045 67 360 9.0 16.0 0.00 0.00 0.00 44 1018.2
20260906003542 66 360 8.0 13.0 0.00 0.00 0.00 45 1018.7
20260906003106 65 360 6.0 13.0 0.00 0.00 0.00 46 1019.1
20260906002543 65 360 7.0 13.0 0.00 0.00 0.00 47 1018.9
20260906002043 64 360 7.0 13.0 0.00 0.00 0.00 48 1018.7
20260906001602 64 360 5.0 14.0 0.00 0.00 0.00 48 1018.9
20260906001039 64 360 7.0 14.0 0.00 0.00 0.00 48 1019.2
20260906000542 64 360 7.0 14.0 0.00 0.00 0.00 48 1018.9
20260905235540 63 360 9.0 16.0 0.00 0.00 0.00 49 1019.1
20260905235043 63 360 6.0 16.0 0.00 0.00 0.00 50 1019.1
20260905234557 62 360 9.0 17.0 0.00 0.00 0.00 51 1018.9
20260905234042 61 360 8.0 17.0 0.00 0.00 0.00 52 1018.7
20260905233542 61 360 8.0 17.0 0.00 0.00 0.00 52 1018.6
20260905233103 61 360 9.0 16.0 0.00 0.00 0.00 52 1018.4
20260905232542 61 360 8.0 16.0 0.00 0.00 0.00 53 1018.3
20260905232042 61 360 8.0 16.0 0.00 0.00 0.00 53 1018.4
20260905231600 60 360 9.0 16.0 0.00 0.00 0.00 54 1018.3
20260905231043 60 360 9.0 15.0 0.00 0.00 0.00 54 1018.3
20260905230540 59 360 9.0 16.0 0.00 0.00 0.00 56 1018.3
20260905225543 58 360 9.0 16.0 0.00 0.00 0.00 58 1018.1
20260905225042 57 360 8.0 16.0 0.00 0.00 0.00 59 1018.0
20260905224603 57 360 9.0 13.0 0.00 0.00 0.00 60 1018.1
20260905224043 56 360 7.0 13.0 0.00 0.00 0.00 60 1018.1
20260905223548 56 360 6.0 13.0 0.00 0.00 0.00 61 1018.0
20260905223100 55 360 8.0 13.0 0.00 0.00 0.00 62 1018.0
20260905222544 55 360 6.0 11.0 0.00 0.00 0.00 63 1018.1
20260905222042 55 360 5.0 11.0 0.00 0.00 0.00 64 1018.1
20260905221557 54 360 4.0 11.0 0.00 0.00 0.00 65 1018.2
20260905221039 54 360 6.0 11.0 0.00 0.00 0.00 66 1018.0
20260905220542 53 360 5.0 11.0 0.00 0.00 0.00 66 1018.0
20260905220106 53 360 5.0 9.0 0.00 0.00 0.00 67 1018.2
20260905215542 52 360 5.0 9.0 0.00 0.00 0.00 67 1018.2
20260905215042 52 360 5.0 10.0 0.00 0.00 0.00 68 1018.3
20260905214603 52 360 6.0 10.0 0.00 0.00 0.00 67 1018.2
20260905214042 52 360 5.0 11.0 0.00 0.00 0.00 67 1018.1
20260905213543 52 360 6.0 13.0 0.00 0.00 0.00 67 1018.0
20260905213102 52 360 6.0 13.0 0.00 0.00 0.00 67 1017.9
20260905212543 52 360 7.0 13.0 0.00 0.00 0.00 68 1018.0
20260905212041 52 360 6.0 11.0 0.00 0.00 0.00 68 1018.0
20260905211600 52 360 5.0 12.0 0.00 0.00 0.00 68 1017.9
20260905211043 52 360 6.0 12.0 0.00 0.00 0.00 68 1018.0
20260905210542 52 360 5.0 10.0 0.00 0.00 0.00 68 1018.0
20260905210123 52 360 5.0 10.0 0.00 0.00 0.00 68 1018.2
20260905205542 51 360 4.0 10.0 0.00 0.00 0.00 68 1018.2
20260905205042 51 360 5.0 10.0 0.00 0.00 0.00 68 1018.0
20260905204604 51 360 4.0 10.0 0.00 0.00 0.00 68 1018.1
20260905204041 51 360 5.0 9.0 0.00 0.00 0.00 68 1018.0
20260905203543 52 360 4.0 8.0 0.00 0.00 0.00 67 1018.1
20260905203058 52 360 4.0 9.0 0.00 0.00 0.00 67 1018.2
20260905202543 52 360 4.0 9.0 0.00 0.00 0.00 67 1018.1
20260905202039 52 360 4.0 9.0 0.00 0.00 0.00 66 1018.1
20260905201557 52 360 5.0 10.0 0.00 0.00 0.00 67 1018.1
20260905201040 52 360 5.0 10.0 0.00 0.00 0.00 67 1018.1
20260905200543 52 360 3.0 6.0 0.00 0.00 0.00 67 1018.2
20260905200112 52 360 3.0 6.0 0.00 0.00 0.00 67 1018.2
20260905195540 52 360 3.0 6.0 0.00 0.00 0.00 67 1018.2
20260905195042 52 360 3.0 6.0 0.00 0.00 0.00 68 1018.2
20260905194610 51 360 2.0 3.0 0.00 0.00 0.00 68 1018.2
20260905194042 51 360 1.0 3.0 0.00 0.00 0.00 67 1018.2
20260905193539 51 0 0.0 2.0 0.00 0.00 0.00 67 1018.3
20260905193056 52 0 0.0 2.0 0.00 0.00 0.00 67 1018.2
20260905192540 52 360 1.0 2.0 0.00 0.00 0.00 66 1018.2
20260905192044 52 360 0.0 2.0 0.00 0.00 0.00 66 1018.0
20260905191609 52 0 0.0 2.0 0.00 0.00 0.00 66 1018.1
20260905191042 52 360 0.0 1.0 0.00 0.00 0.00 65 1018.1
20260905190543 53 0 0.0 1.0 0.00 0.00 0.00 65 1018.1
20260905190117 53 0 0.0 2.0 0.00 0.00 0.00 64 1018.1
20260905185542 53 0 0.0 3.0 0.00 0.00 0.00 64 1018.2
20260905185040 54 360 1.0 3.0 0.00 0.00 0.00 63 1018.0
20260905184623 54 360 1.0 5.0 0.00 0.00 0.00 62 1018.1
20260905184041 54 360 2.0 6.0 0.00 0.00 0.00 62 1018.1
20260905183542 54 360 3.0 6.0 0.00 0.00 0.00 62 1018.1
20260905183104 55 360 2.0 6.0 0.00 0.00 0.00 61 1018.0
20260905182543 55 360 3.0 8.0 0.00 0.00 0.00 61 1017.8
20260905182043 55 360 3.0 8.0 0.00 0.00 0.00 61 1017.8
20260905181600 55 360 4.0 8.0 0.00 0.00 0.00 60 1017.9
20260905181042 55 360 3.0 8.0 0.00 0.00 0.00 60 1018.0
20260905180543 55 360 3.0 8.0 0.00 0.00 0.00 60 1018.0
20260905180104 55 360 3.0 8.0 0.00 0.00 0.00 60 1018.2
20260905175542 55 360 3.0 6.0 0.00 0.00 0.00 61 1018.0
20260905175041 55 360 3.0 5.0 0.00 0.00 0.00 61 1018.0
20260905174600 55 360 2.0 6.0 0.00 0.00 0.00 62 1018.1
20260905174042 55 360 3.0 6.0 0.00 0.00 0.00 62 1018.0
20260905173545 55 360 2.0 8.0 0.00 0.00 0.00 62 1018.1
20260905173109 55 360 2.0 8.0 0.00 0.00 0.00 61 1018.1
20260905172543 55 360 3.0 6.0 0.00 0.00 0.00 61 1018.0
20260905172042 55 360 3.0 6.0 0.00 0.00 0.00 60 1018.2
20260905171605 56 360 3.0 6.0 0.00 0.00 0.00 60 1018.3
20260905171039 56 360 3.0 5.0 0.00 0.00 0.00 60 1018.4
20260905170543 56 360 2.0 4.0 0.00 0.00 0.00 60 1018.4
20260905170109 56 360 2.0 4.0 0.00 0.00 0.00 60 1018.5
20260905165543 56 360 2.0 4.0 0.00 0.00 0.00 59 1018.6
20260905165042 56 360 2.0 5.0 0.00 0.00 0.00 59 1018.7
20260905164603 56 360 2.0 5.0 0.00 0.00 0.00 59 1018.8
20260905164040 57 360 2.0 5.0 0.00 0.00 0.00 58 1018.8
20260905163544 57 360 2.0 5.0 0.00 0.00 0.00 57 1018.8
20260905163110 57 360 2.0 6.0 0.00 0.00 0.00 57 1018.8
20260905162540 58 360 3.0 6.0 0.00 0.00 0.00 56 1018.8
20260905162039 58 360 2.0 8.0 0.00 0.00 0.00 56 1019.0
20260905161603 58 360 3.0 8.0 0.00 0.00 0.00 55 1019.0
20260905161042 58 360 3.0 8.0 0.00 0.00 0.00 55 1019.0
20260905160544 59 360 4.0 8.0 0.00 0.00 0.00 55 1018.9
20260905155540 59 360 3.0 9.0 0.00 0.00 0.00 55 1019.1
20260905155039 59 360 4.0 10.0 0.00 0.00 0.00 55 1019.0
20260905154616 59 360 3.0 10.0 0.00 0.00 0.00 54 1019.1
20260905154043 59 360 4.0 10.0 0.00 0.00 0.00 54 1019.2
20260905153543 59 360 4.0 10.0 0.00 0.00 0.00 54 1019.2
20260905153107 60 360 5.0 10.0 0.00 0.00 0.00 54 1019.2
20260905152540 60 360 4.0 9.0 0.00 0.00 0.00 54 1019.4
20260905152043 60 360 4.0 9.0 0.00 0.00 0.00 53 1019.4
20260905151614 60 360 4.0 9.0 0.00 0.00 0.00 53 1019.5
20260905151043 60 360 5.0 12.0 0.00 0.00 0.00 53 1019.3
20260905150542 60 360 6.0 12.0 0.00 0.00 0.00 53 1019.3
20260905150059 60 360 5.0 10.0 0.00 0.00 0.00 53 1019.3
20260905145541 60 360 5.0 10.0 0.00 0.00 0.00 53 1019.3
20260905145041 60 360 5.0 10.0 0.00 0.00 0.00 53 1019.4
20260905144559 60 360 4.0 8.0 0.00 0.00 0.00 53 1019.5
20260905144042 60 360 3.0 9.0 0.00 0.00 0.00 53 1019.6
20260905143540 60 360 4.0 9.0 0.00 0.00 0.00 53 1019.7
20260905143100 60 360 4.0 9.0 0.00 0.00 0.00 52 1019.9
20260905142540 60 360 4.0 8.0 0.00 0.00 0.00 52 1020.0
20260905142044 60 360 3.0 8.0 0.00 0.00 0.00 52 1020.2
20260905141628 60 360 4.0 8.0 0.00 0.00 0.00 52 1020.4
20260905141041 60 360 4.0 8.0 0.00 0.00 0.00 52 1020.2
20260905140545 60 360 3.0 6.0 0.00 0.00 0.00 52 1020.3
20260905140059 60 360 4.0 6.0 0.00 0.00 0.00 51 1020.2
20260905135545 61 360 3.0 6.0 0.00 0.00 0.00 51 1020.2
20260905135040 61 360 3.0 8.0 0.00 0.00 0.00 51 1020.3
20260905134559 61 360 3.0 8.0 0.00 0.00 0.00 51 1020.4
20260905134042 61 360 3.0 6.0 0.00 0.00 0.00 50 1020.4
20260905133541 61 360 3.0 6.0 0.00 0.00 0.00 50 1020.5
20260905133057 61 360 3.0 5.0 0.00 0.00 0.00 50 1020.6
20260905132540 61 360 2.0 5.0 0.00 0.00 0.00 50 1020.6
20260905132043 61 360 2.0 5.0 0.00 0.00 0.00 50 1020.7
20260905131603 62 360 2.0 5.0 0.00 0.00 0.00 49 1020.7
20260905131044 62 360 2.0 5.0 0.00 0.00 0.00 48 1020.7
20260905130625 62 360 2.0 5.0 0.00 0.00 0.00 48 1020.7
20260905130059 62 360 2.0 3.0 0.00 0.00 0.00 48 1020.8
20260905125540 62 360 1.0 3.0 0.00 0.00 0.00 48 1020.6
20260905125040 62 0 0.0 0.0 0.00 0.00 0.00 48 1020.7
20260905124601 62 0 0.0 0.0 0.00 0.00 0.00 48 1020.6
20260905124041 62 0 0.0 2.0 0.00 0.00 0.00 48 1020.6
20260905123540 62 0 0.0 2.0 0.00 0.00 0.00 49 1020.6
20260905123104 62 0 0.0 2.0 0.00 0.00 0.00 49 1020.7
20260905122541 62 360 1.0 2.0 0.00 0.00 0.00 49 1020.6
20260905122043 62 360 0.0 2.0 0.00 0.00 0.00 48 1020.6
20260905121604 62 360 0.0 2.0 0.00 0.00 0.00 48 1020.6
20260905121043 62 360 0.0 2.0 0.00 0.00 0.00 48 1020.6
20260905120541 63 360 0.0 2.0 0.00 0.00 0.00 47 1020.6
20260905120131 63 360 0.0 2.0 0.00 0.00 0.00 46 1020.6
20260905115544 64 0 0.0 2.0 0.00 0.00 0.00 46 1020.6
20260905115043 64 360 1.0 2.0 0.00 0.00 0.00 45 1020.5
20260905114557 64 360 1.0 2.0 0.00 0.00 0.00 45 1020.6
20260905114039 64 360 1.0 3.0 0.00 0.00 0.00 45 1020.5
20260905113543 64 360 1.0 3.0 0.00 0.00 0.00 45 1020.4
20260905113056 64 360 1.0 3.0 0.00 0.00 0.00 45 1020.5
20260905112543 64 360 1.0 3.0 0.00 0.00 0.00 45 1020.5
20260905112043 64 360 1.0 2.0 0.00 0.00 0.00 44 1020.5
20260905111647 64 360 1.0 2.0 0.00 0.00 0.00 45 1020.5
20260905111042 64 360 1.0 2.0 0.00 0.00 0.00 44 1020.4
20260905110541 64 0 1.0 2.0 0.00 0.00 0.00 45 1020.5
20260905110057 64 360 1.0 2.0 0.00 0.00 0.00 45 1020.5
20260905105540 65 360 1.0 2.0 0.00 0.00 0.00 45 1020.5
20260905105039 65 0 0.0 0.0 0.00 0.00 0.00 45 1020.5
20260905104604 65 0 0.0 2.0 0.00 0.00 0.00 45 1020.4
20260905104046 66 0 0.0 2.0 0.00 0.00 0.00 44 1020.4
20260905103539 66 360 0.0 2.0 0.00 0.00 0.00 43 1020.4
20260905103054 66 360 1.0 2.0 0.00 0.00 0.00 43 1020.2
20260905102542 66 360 0.0 2.0 0.00 0.00 0.00 43 1020.2
20260905102040 66 360 0.0 2.0 0.00 0.00 0.00 42 1020.2
20260905101607 67 0 0.0 0.0 0.00 0.00 0.00 41 1020.2
20260905101040 67 0 0.0 1.0 0.00 0.00 0.00 41 1020.1
20260905100540 67 0 0.0 1.0 0.00 0.00 0.00 41 1020.1
20260905100106 67 360 0.0 2.0 0.00 0.00 0.00 40 1020.0
20260905095541 67 0 0.0 2.0 0.00 0.00 0.00 40 1019.9
20260905095041 68 360 0.0 2.0 0.00 0.00 0.00 39 1019.8
20260905094601 68 0 0.0 2.0 0.00 0.00 0.00 39 1019.8
20260905094044 68 360 0.0 2.0 0.00 0.00 0.00 38 1019.8
20260905093542 69 0 0.0 1.0 0.00 0.00 0.00 38 1019.8
20260905093102 69 0 0.0 2.0 0.00 0.00 0.00 37 1019.7
20260905092545 70 0 0.0 2.0 0.00 0.00 0.00 36 1019.7
20260905092043 70 360 0.0 2.0 0.00 0.00 0.00 36 1019.5
20260905091601 71 360 0.0 3.0 0.00 0.00 0.00 35 1019.5
20260905091044 71 360 0.0 4.0 0.00 0.00 0.00 35 1019.4
20260905090542 71 80 2.0 4.0 0.00 0.00 0.00 34 1019.4
20260905090058 72 86 1.0 4.0 0.00 0.00 0.00 34 1019.4
20260905085541 72 97 2.0 5.0 0.00 0.00 0.00 34 1019.3
20260905085044 72 104 2.0 5.0 0.00 0.00 0.00 33 1019.4
20260905084605 72 98 2.0 5.0 0.00 0.00 0.00 33 1019.3
20260905084041 72 115 2.0 6.0 0.00 0.00 0.00 33 1019.4
20260905083546 72 128 1.0 6.0 0.00 0.00 0.00 33 1019.4
20260905083053 72 34 1.0 4.0 0.00 0.00 0.00 33 1019.4
20260905082543 72 122 1.0 6.0 0.00 0.00 0.00 33 1019.4
20260905082043 72 0 3.0 6.0 0.00 0.00 0.00 33 1019.5
20260905081558 73 126 2.0 7.0 0.00 0.00 0.00 33 1019.5
20260905081040 73 104 2.0 7.0 0.00 0.00 0.00 33 1019.4
20260905080540 73 0 0.0 6.0 0.00 0.00 0.00 33 1019.3
20260905080120 73 88 2.0 6.0 0.00 0.00 0.00 33 1019.3
20260905075543 74 43 2.0 8.0 0.00 0.00 0.00 32 1019.4
20260905075039 74 30 1.0 8.0 0.00 0.00 0.00 32 1019.4
20260905074603 74 9 3.0 8.0 0.00 0.00 0.00 33 1019.3
20260905074042 74 324 1.0 7.0 0.00 0.00 0.00 33 1019.4
20260905073541 74 9 3.0 7.0 0.00 0.00 0.00 33 1019.3
20260905073103 74 0 1.0 5.0 0.00 0.00 0.00 33 1019.4
20260905072543 74 14 1.0 5.0 0.00 0.00 0.00 33 1019.3
20260905072042 74 360 2.0 6.0 0.00 0.00 0.00 32 1019.5
20260905071604 74 115 3.0 6.0 0.00 0.00 0.00 32 1019.5
20260905071039 76 107 1.0 5.0 0.00 0.00 0.00 31 1019.3
20260905070540 76 0 1.0 4.0 0.00 0.00 0.00 31 1019.3
20260905070101 76 297 1.0 3.0 0.00 0.00 0.00 31 1019.4
20260905065541 76 128 0.0 4.0 0.00 0.00 0.00 32 1019.4
20260905065039 75 0 0.0 4.0 0.00 0.00 0.00 32 1019.5